This is the latest recevied weather packets stored in our database for station/object OH6HPS. If no packets are shown the sender has not sent any weather packets the latest 10 day(s).
| Time | Temp. | Humidity | Pressure | Rain* | Wind** | Luminosity | Snow |
|---|---|---|---|---|---|---|---|
| 1777837587 | 11.11° C | 55% | 1007.5 hPa | 0 mm | - | 0 W/m² | - |
| 1777836985 | 11.67° C | 56% | 1007.5 hPa | 0 mm | - | 0 W/m² | - |
| 1777836387 | 11.67° C | 54% | 1007.4 hPa | 0 mm | - | 0 W/m² | - |
| 1777835786 | 11.67° C | 53% | 1007.6 hPa | 0 mm | - | 0 W/m² | - |
| 1777835186 | 12.22° C | 53% | 1007.4 hPa | 0 mm | - | 0 W/m² | - |
| 1777834586 | 12.22° C | 53% | 1007.4 hPa | 0 mm | - | 0 W/m² | - |
| 1777833986 | 12.22° C | 52% | 1007.4 hPa | 0 mm | - | 0 W/m² | - |
| 1777833386 | 12.78° C | 52% | 1007.4 hPa | 0 mm | - | 0 W/m² | - |
| 1777832785 | 12.78° C | 51% | 1007.4 hPa | 0 mm | - | 0 W/m² | - |
| 1777832185 | 13.33° C | 55% | 1007.2 hPa | 0 mm | - | 7 W/m² | - |
| 1777831586 | 13.33° C | 51% | 1007.2 hPa | 0 mm | - | 18 W/m² | - |
| 1777830985 | 13.89° C | 50% | 1007.2 hPa | 0 mm | - | 32 W/m² | - |
| 1777830384 | 13.89° C | 51% | 1007.1 hPa | 0 mm | - | 25 W/m² | - |
| 1777829785 | 13.89° C | 51% | 1007.2 hPa | 0 mm | - | 27 W/m² | - |
| 1777829184 | 13.89° C | 51% | 1007.1 hPa | 0 mm | - | 28 W/m² | - |
| 1777828584 | 14.44° C | 51% | 1007.1 hPa | 0 mm | - | 34 W/m² | - |
| 1777828272 | 14.44° C | 51% | 1007 hPa | 0 mm | - | 49 W/m² | - |
| 1777827383 | 14.44° C | 50% | 1007.1 hPa | 0 mm | - | 72 W/m² | - |
| 1777826783 | 15° C | 51% | 1007.1 hPa | 0 mm | - | 78 W/m² | - |
| 1777826183 | 15° C | 52% | 1007.1 hPa | 0 mm | - | 83 W/m² | - |
| 1777825582 | 15° C | 50% | 1006.9 hPa | 0 mm | - | 100 W/m² | - |
| 1777824982 | 15° C | 51% | 1007.2 hPa | 0 mm | - | 93 W/m² | - |
| 1777824383 | 15.56° C | 52% | 1007.1 hPa | 0 mm | - | 141 W/m² | - |
| 1777823782 | 15.56° C | 53% | 1007.1 hPa | 0 mm | - | 106 W/m² | - |
| 1777823182 | 15.56° C | 53% | 1007.4 hPa | 0 mm | - | 93 W/m² | - |
* Rain latest hour (hover to see other rain measurements)
** Current wind speed in m/s (hover to see current wind gust speed)